Ana Sayfa
METAR-TAF:

METAR-TAF

Havaalanları :

Brooks County Airport

Falfurrias, Teksas, Amerika Birleşik Devletleri

Enlem: 27-12-24N, Boylam: 098-07-16W, yükseklik: 34 m

Güncel hava durumu gözlemi

Rapor saat 15:35 UTC de 23 dakika önce yapıldı.
Rüzgar kuzey/kuzeydoğudan 5 kt
Sıcaklık 15°C
Nem 72%
Basınç 1030 hPa
Görüş mesafesi: 16.1 km
Açık gökyüzü

METAR: KBKS 221535Z AUTO 03005KT 10SM CLR 15/10 A3042 RMK AO1 T01540098

Saat: 09:58 (15:58 UTC)


TAF: eksik

4.000'den fazla havaalanı için hava durumu gözlemleri ve tahminleri (METAR ve TAF raporları).

Kullanılabilir istasyonlar harita üzerinde sarı ve kırmızı noktalarla gösterilir.

İstasyonun adını görmek için fareyi noktanın üzerinde gezdirin.

Sonrasında hava gözlem ve tahminlerini görmek için tıklayın.

Haritayı değiştirmek için: yaklaştırmak için siyah artı işaretli yeşil düğmeye ve uzaklaştırmak için de eksi işaretli düğmeye hızla tıklayın; bitişik haritalar için yeşil okları kullanın.


METAR-TAF: